Flag for Sweden Weather past 2 weeks in Norrköping, Sweden

32 °F


Feels Like: 32 °F
Forecast: 29 / 48 °F
Wind: No wind

Location: Norrkoping Airport

Current Time: Oct 9, 2015 at 11:03:17 PM

Latest Report: Oct 9, 2015 at 10:20 PM

Visibility: 10 mi

Pressure: 30.45 "Hg

Humidity: 93%

Dew point: 30 °F

Location of NorrköpingLocation

Historic Weather in Norrköping — Graph


Norrköping temperature yesterday

Maximum temperature yesterday: 52 °F (at 12:20 PM)
Minimum temperature yesterday: 36 °F (at 1:20 AM)
Average temperature yesterday: 44 °F

Past Weeks' High & Low Weather Summary

High64 °F (Oct 2, 2:50 PM)100% (Sep 26, 2:50 AM)30.74 "Hg (Sep 26, 2:50 AM)
Low30 °F (Oct 9, 9:50 PM)47% (Oct 8, 12:20 PM)29.89 "Hg (Sep 25, 1:20 AM)
Average50 °F79%30.24 "Hg
* Reported Sep 24 9:20 PM — Oct 9 9:50 PM, Norrköping, Weather by CustomWeather, © 2015

Note: Actual official high and low records may vary slightly from our data, if they occured in-between our weather recording intervals... More about our weather records


Norrköping weather history for previous 24 hours

Time TempWeatherWind HumidityBarometerVisibility
9:50 PM
Fri, Oct 9
30 °FClear.No wind100%30.45 "Hg10 mi
9:20 PM32 °FClear.No wind93%30.45 "Hg10 mi
8:50 PM32 °FClear.No wind93%30.45 "Hg10 mi
8:20 PM34 °FClear.No wind100%30.42 "Hg10 mi
7:50 PM36 °FClear.1 mph87%30.42 "Hg10 mi
7:20 PM37 °FClear.2 mph81%30.42 "Hg10 mi
6:50 PM39 °FSunny.3 mph75%30.42 "Hg10 mi
6:20 PM41 °FSunny.3 mph76%30.42 "Hg10 mi
5:50 PM45 °FSunny.6 mph61%30.42 "Hg10 mi
5:20 PM46 °FSunny.7 mph57%30.42 "Hg10 mi
4:20 PM46 °FSunny.9 mph57%30.42 "Hg10 mi
3:50 PM48 °FSunny.9 mph50%30.42 "Hg10 mi
3:20 PM50 °FScattered clouds.9 mph47%30.42 "HgN/A
2:50 PM48 °FPassing clouds.7 mph50%30.42 "HgN/A
2:20 PM48 °FSunny.9 mph54%30.42 "Hg10 mi
1:50 PM48 °FSunny.8 mph50%30.42 "Hg10 mi
1:20 PM48 °FSunny.8 mph54%30.42 "Hg10 mi
12:50 PM50 °FSunny.8 mph50%30.42 "Hg10 mi
12:20 PM48 °FScattered clouds.8 mph54%30.42 "HgN/A
11:50 AM48 °FScattered showers. Scattered clouds.7 mph62%30.42 "HgN/A
11:20 AM46 °FPartly sunny.5 mph76%30.42 "HgN/A
10:50 AM46 °FPartly sunny.3 mph76%30.42 "HgN/A
10:20 AM45 °FPartly sunny.5 mph81%30.42 "HgN/A
9:50 AM45 °FPartly sunny.7 mph81%30.42 "HgN/A
9:20 AM45 °FBroken clouds.3 mph87%30.42 "HgN/A
8:50 AM43 °FPartly sunny.1 mph93%30.39 "HgN/A
8:20 AM41 °FPartly sunny.No wind100%30.39 "HgN/A
7:50 AM39 °FPassing clouds.No wind100%30.39 "HgN/A
7:20 AM39 °FLight rain. Passing clouds.1 mph100%30.39 "HgN/A
6:50 AM39 °FPassing clouds.2 mph93%30.39 "HgN/A
6:20 AM39 °FPartly cloudy.No wind100%30.39 "HgN/A
5:20 AM37 °FMostly cloudy.1 mph100%30.39 "Hg1 mi
4:50 AM37 °FFog.No wind100%30.39 "Hg1 mi
4:20 AM39 °FPassing clouds.1 mph93%30.39 "HgN/A
3:50 AM41 °FOvercast.2 mph93%30.39 "HgN/A
3:20 AM39 °FLight rain. Mostly cloudy.No wind100%30.39 "HgN/A
2:50 AM41 °FPartly cloudy.No wind93%30.39 "Hg4 mi
2:20 AM41 °FPassing clouds.No wind93%30.39 "HgN/A
1:50 AM41 °FPassing clouds.1 mph93%30.39 "HgN/A
1:20 AM41 °FClear.No wind93%30.39 "Hg10 mi
12:50 AM41 °FOvercast.No wind93%30.39 "HgN/A
12:20 AM41 °FOvercast.No wind100%30.39 "HgN/A
11:20 PM
Thu, Oct 8
43 °FPassing clouds.No wind87%30.39 "HgN/A
Weather by CustomWeather, © 2015

See weather overviewHow to use our weather pages